Location: Arpaise
(41.0333°N, 14.7333°E)
Time: 21:21:59
(UTC+00:00)

Cosmos 846 Rocket - Pass Details

Date: 20 January 2021
Orbit: 948 x 991 km, 82.9° (Epoch: 06 March)

Event Time Altitude Azimuth Distance (km) Brightness Sun altitude
Rises 05:01:27 0° 359° (N) 3,635 8.3 -15.0°
Reaches altitude 10° 05:04:07 10° 6° (N) 2,683 7.7 -14.5°
Maximum altitude 05:09:53 42° 76° (ENE) 1,335 6.8 -13.4°
Drops below altitude 10° 05:15:36 10° 146° (SSE) 2,665 8.6 -12.4°
Sets 05:18:13 0° 154° (SSE) 3,608 9.2 -11.9°
